Location: Grasslands National Park East Block
(49.0708°N, 106.5295°W)
Time: 20:55:16
(UTC-06:00)

Max Valier Satellite - Pass Details

Date: 22 September 2019
Orbit: 490 x 508 km, 97.3° (Epoch: 21 October)

Event Time Altitude Azimuth Distance (km) Brightness Sun altitude
Exits shadow 22:18:46 24° 322° (NW) 1,086 ? -30.1°
Drops below altitude 10° 22:20:29 10° 336° (NNW) 1,737 ? -30.3°
Sets 22:22:40 0° 342° (NNW) 2,628 ? -30.6°
